FW1542 Weather Reports


Display with metric or nautical units.
time (UTC)temp
F
wind
direction
speed
MPH
gust
MPH
rain 1hr
in
rain 24hr
in
rain mn
in
humidity
%
barometer
mb
20260510163042 85 116 6.0 13.0 0.00 0.00 0.00 69 1013.0
20260510161547 85 153 4.0 12.0 0.00 0.00 0.00 70 1012.9
20260510161538 85 148 4.0 12.0 0.00 0.00 0.00 71 1015.2
20260510160047 83 123 3.0 11.0 0.00 0.00 0.00 74 1012.8
20260510160038 83 123 4.0 9.0 0.00 0.00 0.00 75 1015.0
20260510154544 82 198 3.0 9.0 0.00 0.00 0.00 71 1012.8
20260510154533 82 195 3.0 9.0 0.00 0.00 0.00 71 1014.8
20260510153041 82 0 2.0 7.0 0.00 0.00 0.00 74 1012.7
20260510153028 82 193 3.0 6.0 0.00 0.00 0.00 75 1014.8
20260510151545 80 221 1.0 7.0 0.00 0.00 0.00 76 1012.6
20260510151536 80 221 1.0 6.0 0.00 0.00 0.00 77 1014.6
20260510150108 81 153 2.0 9.0 0.00 0.00 0.00 76 1012.4
20260510150026 81 195 2.0 9.0 0.00 0.00 0.00 76 1014.6
20260510144540 80 201 2.0 7.0 0.00 0.00 0.00 78 1012.5
20260510144522 80 177 3.0 7.0 0.00 0.00 0.00 78 1014.5
20260510143046 79 202 3.0 7.0 0.00 0.00 0.00 80 1012.3
20260510143019 78 190 3.0 7.0 0.00 0.00 0.00 81 1014.3
20260510141546 77 213 2.0 10.0 0.00 0.00 0.00 82 1012.3
20260510141518 77 196 1.0 9.0 0.00 0.00 0.00 82 1014.3
20260510140045 77 0 2.0 7.0 0.00 0.00 0.00 83 1012.2
20260510140017 77 209 1.0 7.0 0.00 0.00 0.00 83 1014.3
20260510134545 76 212 1.0 6.0 0.00 0.00 0.00 83 1012.3
20260510134515 76 223 1.0 6.0 0.00 0.00 0.00 84 1014.2
20260510133045 74 0 0.0 0.0 0.00 0.00 0.00 85 1012.1
20260510133014 74 118 0.0 0.0 0.00 0.00 0.00 85 1014.1
20260510131545 72 0 0.0 2.0 0.00 0.00 0.00 87 1011.9
20260510131512 72 117 0.0 2.0 0.00 0.00 0.00 88 1013.9
20260510130042 71 0 0.0 0.0 0.00 0.00 0.00 89 1011.7
20260510130010 71 105 0.0 0.0 0.00 0.00 0.00 90 1013.7
20260510124543 68 0 0.0 1.0 0.00 0.05 0.00 92 1011.5
20260510124515 68 104 0.0 1.0 0.00 0.05 0.00 93 1013.7
20260510123045 67 0 0.0 1.0 0.00 0.05 0.00 92 1011.3
20260510123009 67 104 0.0 1.0 0.00 0.05 0.00 92 1013.7
20260510121549 67 0 0.0 1.0 0.00 0.05 0.00 91 1011.2
20260510121507 67 158 0.0 1.0 0.00 0.05 0.00 92 1013.6
20260510120045 67 0 0.0 1.0 0.00 0.05 0.00 91 1011.1
20260510120018 67 146 0.0 1.0 0.00 0.05 0.00 91 1013.4
20260510114551 67 146 0.0 2.0 0.00 0.05 0.00 90 1011.3
20260510114513 67 146 0.0 2.0 0.00 0.05 0.00 90 1013.5
20260510113044 67 146 0.0 2.0 0.00 0.05 0.00 89 1011.2
20260510113004 67 146 0.0 2.0 0.00 0.05 0.00 90 1013.5
20260510111551 68 0 0.0 4.0 0.00 0.05 0.00 89 1011.0
20260510111502 68 146 0.0 4.0 0.00 0.05 0.00 89 1013.4
20260510110045 68 0 1.0 3.0 0.00 0.05 0.00 89 1011.3
20260510110002 68 142 1.0 3.0 0.00 0.05 0.00 89 1013.4
20260510104547 68 0 2.0 4.0 0.00 0.05 0.00 88 1011.1
20260510104501 68 140 2.0 4.0 0.00 0.05 0.00 89 1013.4
20260510103105 68 96 0.0 2.0 0.00 0.05 0.00 88 1013.4
20260510103046 68 0 0.0 4.0 0.00 0.05 0.00 88 1011.1
20260510101600 68 130 0.0 2.0 0.00 0.05 0.00 88 1013.5
20260510101546 68 0 0.0 2.0 0.00 0.05 0.00 87 1011.3
20260510100057 69 130 0.0 2.0 0.00 0.05 0.00 87 1013.3
20260510100053 69 0 0.0 2.0 0.00 0.05 0.00 86 1011.1
20260510094607 69 130 0.0 3.0 0.00 0.05 0.00 87 1013.4
20260510094552 69 130 0.0 3.0 0.00 0.05 0.00 86 1011.2
20260510093111 69 132 1.0 3.0 0.00 0.05 0.00 86 1013.3
20260510093045 69 132 1.0 4.0 0.00 0.05 0.00 86 1011.1
20260510091551 69 180 1.0 3.0 0.00 0.05 0.00 86 1012.9
20260510091544 69 180 1.0 3.0 0.00 0.05 0.00 85 1010.8
20260510090050 70 187 1.0 2.0 0.00 0.05 0.00 85 1013.1
20260510090045 70 187 1.0 2.0 0.00 0.05 0.00 84 1010.9
20260510084547 70 187 0.0 0.0 0.00 0.05 0.00 84 1013.1
20260510084542 70 0 0.0 2.0 0.00 0.05 0.00 83 1010.7
20260510083055 71 0 0.0 1.0 0.00 0.05 0.00 83 1010.8
20260510081544 71 187 0.0 2.0 0.00 0.05 0.00 82 1013.1
20260510080045 72 187 0.0 2.0 0.00 0.05 0.00 80 1010.7
20260510080041 72 187 0.0 2.0 0.00 0.05 0.00 81 1013.0
20260510074547 73 0 0.0 1.0 0.00 0.05 0.00 79 1010.5
20260510074537 73 187 0.0 1.0 0.00 0.05 0.00 79 1012.8
20260510073051 74 0 0.0 5.0 0.00 0.05 0.00 78 1010.7
20260510073045 74 191 0.0 4.0 0.00 0.05 0.00 79 1012.7
20260510071541 74 173 1.0 6.0 0.00 0.05 0.00 78 1010.8
20260510071538 74 173 2.0 5.0 0.00 0.05 0.00 79 1013.1
20260510070044 74 0 0.0 7.0 0.00 0.05 0.00 79 1010.8
20260510070033 74 175 0.0 7.0 0.00 0.05 0.00 79 1013.0
20260510064549 74 188 2.0 7.0 0.00 0.05 0.00 79 1010.6
20260510064532 74 188 2.0 7.0 0.00 0.05 0.00 80 1012.9
20260510063044 75 167 2.0 5.0 0.00 0.05 0.00 80 1010.7
20260510063030 75 167 2.0 5.0 0.00 0.05 0.00 80 1013.1
20260510061542 76 147 1.0 5.0 0.00 0.05 0.00 79 1010.9
20260510061532 76 147 2.0 4.0 0.00 0.05 0.00 79 1013.1
20260510060044 76 0 2.0 7.0 0.00 0.05 0.00 78 1010.9
20260510060036 76 155 1.0 6.0 0.00 0.05 0.00 78 1013.1
20260510054542 77 0 2.0 6.0 0.00 0.05 0.00 76 1010.8
20260510054533 77 140 2.0 5.0 0.00 0.05 0.00 77 1013.0
20260510053042 77 110 2.0 7.0 0.00 0.05 0.00 76 1010.7
20260510053020 77 262 2.0 7.0 0.00 0.05 0.00 76 1012.9
20260510051556 78 142 2.0 9.0 0.00 0.05 0.00 74 1010.4
20260510051517 78 114 2.0 8.0 0.00 0.05 0.00 75 1012.4
20260510050046 78 164 3.0 10.0 0.00 0.05 0.00 74 1010.3
20260510050017 78 165 4.0 10.0 0.00 0.05 0.00 74 1012.4
20260510044547 79 169 3.0 9.0 0.00 0.05 0.05 73 1010.1
20260510044513 79 145 4.0 9.0 0.00 0.05 0.05 73 1012.4
20260510043044 78 134 4.0 9.0 0.00 0.05 0.05 73 1010.2
20260510043013 78 132 3.0 8.0 0.00 0.05 0.05 74 1012.4
20260510041546 78 141 2.0 5.0 0.00 0.05 0.05 74 1010.1
20260510041511 78 142 2.0 5.0 0.00 0.05 0.05 74 1012.1
20260510040050 79 125 1.0 7.0 0.00 0.05 0.05 73 1010.0
20260510040011 79 125 1.0 7.0 0.00 0.05 0.05 73 1012.0
20260510034547 79 128 2.0 4.0 0.00 0.05 0.05 72 1009.9
20260510034519 79 129 2.0 4.0 0.00 0.05 0.05 73 1011.8
20260510033042 80 121 2.0 6.0 0.00 0.05 0.05 71 1009.8
20260510033012 80 121 2.0 6.0 0.00 0.05 0.05 72 1011.9
20260510031543 80 0 0.0 4.0 0.00 0.05 0.05 70 1009.7
20260510031511 80 115 0.0 4.0 0.00 0.05 0.05 70 1011.6
20260510030051 81 111 2.0 4.0 0.00 0.05 0.05 69 1009.6
20260510030017 81 111 2.0 4.0 0.00 0.05 0.05 69 1011.5
20260510024543 81 122 2.0 7.0 0.00 0.05 0.05 68 1009.5
20260510024509 82 123 2.0 7.0 0.00 0.05 0.05 69 1011.4
20260510023044 82 138 3.0 8.0 0.00 0.05 0.05 67 1009.2
20260510023008 82 94 3.0 7.0 0.00 0.05 0.05 68 1011.2
20260510021545 83 130 4.0 9.0 0.00 0.05 0.05 67 1009.0
20260510021507 83 148 3.0 9.0 0.00 0.05 0.05 68 1011.0
20260510020044 83 136 3.0 8.0 0.00 0.05 0.05 66 1008.8
20260510020006 83 119 3.0 8.0 0.00 0.05 0.05 67 1010.9
20260510014543 84 117 3.0 9.0 0.00 0.05 0.05 65 1008.5
20260510014509 84 134 3.0 9.0 0.00 0.05 0.05 66 1010.7
20260510013041 84 159 3.0 7.0 0.00 0.05 0.05 63 1008.2
20260510013008 84 159 3.0 7.0 0.00 0.05 0.05 64 1010.3
20260510011547 85 167 3.0 6.0 0.00 0.05 0.05 63 1008.0
20260510011508 85 168 3.0 6.0 0.00 0.05 0.05 63 1010.1
20260510010041 86 161 3.0 7.0 0.00 0.05 0.05 62 1007.8
20260510010005 86 160 3.0 7.0 0.00 0.05 0.05 62 1009.9
20260510004539 86 145 3.0 9.0 0.00 0.05 0.05 61 1007.7
20260510004503 86 164 3.0 8.0 0.00 0.05 0.05 62 1009.7
20260510003045 87 204 3.0 9.0 0.00 0.05 0.05 60 1007.4
20260510003006 87 182 2.0 9.0 0.00 0.05 0.05 61 1009.4
20260510001542 88 192 3.0 7.0 0.00 0.05 0.05 60 1007.2
20260510001501 88 210 3.0 7.0 0.00 0.05 0.05 61 1009.3
20260510000103 89 194 3.0 7.0 0.00 0.05 0.05 60 1009.4
20260510000044 89 207 2.0 8.0 0.00 0.05 0.05 60 1007.3
20260509234559 89 192 3.0 7.0 0.00 0.05 0.05 60 1009.6
20260509234543 89 185 3.0 7.0 0.00 0.05 0.05 59 1007.4
20260509233059 89 154 4.0 9.0 0.00 0.05 0.05 58 1009.6
20260509233043 89 167 4.0 10.0 0.00 0.05 0.05 58 1007.4
20260509231604 89 201 2.0 8.0 0.00 0.05 0.05 59 1009.7
20260509231545 89 206 3.0 8.0 0.00 0.05 0.05 58 1007.5
20260509230100 89 249 0.0 4.0 0.00 0.05 0.05 59 1009.5
20260509230055 89 0 0.0 4.0 0.00 0.05 0.05 58 1007.4
20260509224601 89 244 1.0 4.0 0.00 0.05 0.05 58 1009.6
20260509224544 89 244 1.0 6.0 0.00 0.05 0.05 57 1007.4
20260509223057 90 216 1.0 6.0 0.00 0.05 0.05 56 1009.6
20260509223043 90 215 0.0 6.0 0.00 0.05 0.05 56 1007.4
20260509221556 90 198 1.0 4.0 0.00 0.05 0.05 57 1009.6
20260509221546 90 0 0.0 4.0 0.00 0.05 0.05 57 1007.4
20260509220103 90 243 3.0 8.0 0.00 0.05 0.05 55 1009.7
20260509220048 90 217 1.0 7.0 0.00 0.05 0.05 55 1007.4
20260509214600 91 239 2.0 6.0 0.00 0.05 0.05 57 1009.7
20260509214540 91 246 1.0 6.0 0.00 0.05 0.05 55 1007.4
20260509213119 92 169 0.0 6.0 0.00 0.05 0.05 54 1009.8
20260509213057 92 0 0.0 4.0 0.00 0.05 0.05 54 1007.5
20260509211553 92 238 1.0 7.0 0.00 0.05 0.05 57 1010.0
20260509211542 92 225 2.0 7.0 0.00 0.05 0.05 57 1007.7
20260509210100 91 274 0.0 6.0 0.00 0.05 0.05 57 1010.3
20260509210058 91 0 1.0 6.0 0.00 0.05 0.05 57 1007.9
20260509204545 90 234 0.0 10.0 0.00 0.05 0.05 59 1010.5
20260509204542 90 0 0.0 10.0 0.00 0.05 0.05 58 1008.0
20260509203043 90 263 3.0 9.0 0.00 0.05 0.05 61 1010.8
20260509201543 90 240 1.0 7.0 0.00 0.05 0.05 60 1008.7
20260509201539 90 250 2.0 6.0 0.00 0.05 0.05 60 1011.1
20260509200043 89 0 2.0 8.0 0.00 0.05 0.05 62 1009.0
20260509200037 89 205 1.0 8.0 0.00 0.05 0.05 64 1011.3
20260509194542 89 0 0.0 8.0 0.00 0.05 0.05 67 1009.3
20260509194536 89 252 0.0 8.0 0.00 0.05 0.05 67 1011.6
20260509193044 89 0 0.0 7.0 0.00 0.05 0.05 62 1009.6
20260509193042 89 306 0.0 7.0 0.00 0.05 0.05 62 1011.9
20260509191546 89 0 1.0 9.0 0.00 0.05 0.05 65 1009.8
20260509191539 89 238 1.0 8.0 0.00 0.05 0.05 66 1012.0
20260509190043 88 213 2.0 7.0 0.00 0.05 0.05 64 1009.8
20260509190032 88 213 1.0 7.0 0.00 0.05 0.05 64 1012.1
20260509184553 88 0 1.0 7.0 0.00 0.05 0.05 68 1009.9
20260509184536 88 258 1.0 7.0 0.00 0.05 0.05 68 1012.3
20260509183042 87 271 1.0 5.0 0.00 0.05 0.05 67 1010.1
20260509183031 87 259 1.0 5.0 0.00 0.05 0.05 68 1012.4
20260509181556 87 0 1.0 10.0 0.00 0.05 0.05 66 1010.2
20260509181526 87 264 1.0 10.0 0.00 0.05 0.05 67 1012.5
20260509180049 86 225 3.0 9.0 0.00 0.05 0.05 69 1010.4
20260509180023 86 227 2.0 9.0 0.00 0.05 0.05 69 1012.8
20260509174546 85 284 2.0 8.0 0.00 0.05 0.05 71 1010.4
20260509174520 85 288 2.0 8.0 0.00 0.05 0.05 72 1013.0
20260509173046 84 248 1.0 9.0 0.00 0.05 0.05 75 1010.6
20260509173019 84 248 1.0 9.0 0.00 0.05 0.05 75 1013.1
20260509171543 82 274 2.0 9.0 0.00 0.05 0.05 78 1010.8
20260509171513 82 269 2.0 9.0 0.00 0.05 0.05 78 1013.3
20260509170048 82 227 2.0 7.0 0.00 0.05 0.05 78 1010.8
20260509170014 82 217 1.0 7.0 0.00 0.05 0.05 77 1013.5
20260509164543 81 277 1.0 9.0 0.00 0.05 0.05 82 1010.7
20260509164507 80 277 1.0 7.0 0.00 0.05 0.05 83 1013.4